User: anonymous   Login
Location: Girdwood
(60.9430°N, 149.1660°W)
Time: 20:27:47
(UTC-09:00)
Language:

Iridium 86 - Orbit

View from above orbital plane
View from above orbital plane
View from above satellite
View from above satellite

Ground track
Ground track

The orbit data is extracted from the following two-line orbital elements,

1 25528U 98066B   17056.48358211 -.00000031  00000-0 -18275-4 0  9995
2 25528  86.3946  36.4941 0002180  79.3980 280.7461 14.34214007963354
Epoch (UTC): 25 February 2017 11:36:21
Eccentricity: 0.0002180
inclination: 86.3946°
perigee height: 776 km
apogee height: 779 km
right ascension of ascending node: 36.4941°
argument of perigee: 79.3980°
revolutions per day: 14.34214007
mean anomaly at epoch: 280.7461°
orbit number at epoch: 96335

The dashed part of the orbit path shows where the satellite is in the earth's shadow,  

DLR